Theta_e
362 361 360 360 361 359 358 355 354 352 353 350 350 354 354 357 361 359 358 360 360 359 360 367 371 365 355 361 368 370 368 365 364 357 361 357 353 352 351 351 353 350
362 363 365 361 364 366 364 357 353 352 354 359 353 354 355 358 354 358 358 357 360 358 364 363 364 366 363 359 363 358 363 361 358 352 352 357 356 350 349 350 349 348
360 360 359 358 357 358 357 357 359 355 351 350 352 360 353 356 356 361 358 359 357 356 363 364 363 364 359 362 369 363 356 362 358 354 371 363 360 358 357 352 352 353
359 359 357 356 357 356 356 356 356 358 354 353 350 350 352 353 355 356 360 363 358 358 358 359 360 359 360 361 367 369 361 372 364 366 367 366 363 358 355 356 354 352
355 358 358 358 360 359 358 355 354 353 352 354 351 354 356 362 362 355 358 358 363 358 359 360 362 360 367 369 369 370 366 363 365 369 367 363 362 357 353 354 354 350
359 361 358 359 357 356 354 354 354 353 352 350 351 351 353 355 352 353 354 356 355 354 353 355 356 359 363 365 368 368 365 357 359 365 361 361 357 355 353 354 356 355
358 359 355 360 358 357 354 354 354 354 352 352 354 352 355 352 352 355 358 356 357 359 355 373 366 368 361 370 369 368 366 366 364 364 363 359 362 358 357 356 359 360
355 357 356 358 356 354 353 354 353 353 356 358 354 359 358 354 356 351 352 354 352 359 359 363 372 371 368 365 364 367 362 359 360 364 363 361 362 360 361 359 358 359
354 353 357 361 359 358 355 356 355 354 358 353 353 354 356 356 353 351 355 357 357 363 363 363 370 370 370 371 369 366 361 359 360 358 359 356 357 359 359 362 357 359
356 358 358 360 358 362 361 364 357 358 358 358 362 362 357 363 358 356 370 370 367 367 368 368 368 368 367 366 366 366 363 362 362 360 357 354 357 357 356 356 358 355
358 361 361 362 360 360 361 360 364 364 365 367 367 366 367 367 367 371 366 370 366 365 367 367 366 366 364 365 365 366 361 359 355 352 353 353 354 352 354 351 351 349
357 360 363 365 365 363 361 360 362 362 363 363 368 370 370 372 370 367 362 362 365 364 363 364 364 362 363 363 361 358 356 355 353 352 354 351 352 351 352 350 351 350
356 357 361 365 369 365 362 361 363 362 361 364 368 368 370 370 369 365 364 362 366 365 361 355 353 352 354 356 356 356 355 353 352 350 349 351 351 351 351 352 352 353
357 359 362 365 369 364 363 363 363 364 368 370 370 370 369 368 367 368 368 367 365 360 355 354 351 352 354 354 357 356 355 351 349 347 350 351 350 349 350 352 355 356
360 361 365 366 365 363 363 361 361 363 365 364 363 366 368 370 370 367 365 362 359 358 353 353 354 353 353 354 354 355 355 352 352 353 351 351 351 352 353 355 356 357
363 365 365 365 364 362 363 363 362 362 361 358 360 364 368 369 366 366 361 360 359 357 357 356 355 356 356 355 355 355 355 355 355 355 355 353 352 353 355 356 357 356
362 363 365 364 365 365 364 363 364 362 358 358 362 361 362 363 361 354 352 359 358 357 355 354 353 358 356 347 351 357 357 356 356 356 356 355 354 351 350 352 354 355
359 361 363 363 364 364 365 365 364 363 358 356 357 356 356 355 353 355 356 359 356 354 353 352 355 350 341 344 346 346 354 357 356 354 355 354 353 354 354 352 353 353
359 359 361 363 363 364 364 363 362 359 353 354 351 352 351 346 347 352 357 358 356 353 351 353 351 342 338 340 339 339 343 355 356 354 355 355 354 353 353 354 355 353
360 360 359 362 363 364 364 363 356 353 352 350 350 352 352 351 353 353 356 355 355 355 355 354 348 343 335 337 336 336 340 348 354 355 355 354 354 354 353 354 352 348
360 360 360 361 363 363 362 355 352 353 351 350 350 352 351 351 356 355 354 353 354 356 354 349 344 334 335 335 333 334 337 350 355 355 354 355 357 355 354 351 350 349
361 360 361 361 362 361 355 350 351 350 348 351 352 351 352 356 357 356 353 352 350 353 350 343 338 328 331 331 329 329 338 356 356 356 355 354 353 354 354 355 354 352
363 361 361 359 352 349 349 350 350 352 353 352 350 351 351 353 355 355 357 354 352 352 350 346 342 329 324 324 325 325 343 354 356 357 352 351 351 353 355 353 352 350
359 359 352 350 350 350 349 351 353 354 352 353 353 352 353 352 354 355 356 354 352 352 352 347 340 330 322 321 321 323 337 354 357 354 352 356 354 351 355 351 348 351
354 353 351 351 351 351 348 346 348 352 354 357 357 355 353 354 353 352 351 353 353 353 353 347 341 333 319 319 320 323 338 354 357 353 352 350 351 349 351 348 341 342
348 348 348 352 351 351 352 352 351 355 356 355 355 354 352 354 351 349 349 349 353 352 350 347 341 335 327 317 318 322 328 352 352 348 349 348 348 349 348 346 343 337
Wind_Speed
9 8 9 8 7 7 7 8 9 10 6 8 9 8 7 7 9 8 10 8 8 7 6 4 4 4 6 3 3 2 2 4 3 4 3 4 4 7 8 6 4 5
9 8 6 8 6 6 5 7 9 8 7 5 6 6 6 6 9 9 7 7 8 8 5 7 5 3 4 4 5 4 3 3 4 6 5 4 4 7 8 7 7 6
10 10 10 11 9 10 10 8 5 7 7 9 6 4 7 6 6 5 6 10 8 9 5 4 5 5 6 5 3 4 6 5 4 5 1 4 3 4 4 6 5 5
11 10 11 11 10 10 11 8 7 5 6 6 7 8 6 6 6 8 5 5 6 8 9 7 7 7 6 5 4 2 3 1 3 2 2 3 3 5 5 4 6 7
11 10 10 10 7 8 8 8 7 8 8 5 8 6 5 4 3 5 5 5 4 4 4 6 4 5 4 3 3 2 3 3 2 2 2 3 4 4 6 5 5 6
3 6 8 9 8 8 8 9 8 8 9 10 9 7 5 5 6 6 7 7 7 7 7 7 8 7 6 6 3 2 2 4 4 3 4 4 5 6 6 5 4 5
8 3 8 12 6 8 7 8 9 9 10 6 6 6 5 7 7 6 5 4 6 6 7 2 2 1 4 3 3 3 3 3 3 3 3 3 3 6 6 6 4 4
9 9 11 8 11 12 11 10 11 8 3 1 4 4 4 5 6 8 7 6 7 7 6 4 3 3 3 4 4 3 4 4 4 3 4 3 3 4 4 4 5 4
6 5 2 5 7 1 5 10 10 4 1 5 8 9 6 5 6 7 5 6 6 4 7 5 3 3 2 2 2 2 3 4 3 4 3 4 5 4 5 4 5 5
7 5 4 6 7 5 2 6 3 2 2 3 6 5 5 4 4 4 8 5 4 3 4 5 4 2 1 1 1 2 2 3 3 3 6 7 6 4 5 6 5 6
9 7 6 6 6 7 8 7 5 5 4 3 3 1 1 3 1 2 4 2 3 2 2 2 3 3 1 2 2 2 2 3 4 3 4 5 6 6 4 5 7 4
8 7 7 6 5 6 7 5 3 3 2 2 3 3 2 2 4 2 1 2 1 1 0 1 4 5 4 4 5 5 4 3 4 4 3 3 4 4 4 3 4 1
9 8 7 7 5 6 5 5 4 5 4 5 6 5 4 4 3 2 1 1 1 3 9 10 6 6 6 5 3 2 4 3 2 2 3 3 2 3 4 4 4 3
11 11 9 8 6 6 5 6 6 5 6 5 3 2 3 3 2 2 1 4 7 8 8 3 3 3 4 4 4 1 1 0 1 4 5 3 3 3 5 5 4 4
11 11 9 8 7 7 6 6 6 4 2 3 4 2 3 2 3 2 5 6 5 5 5 4 2 2 4 3 3 3 3 3 3 2 2 4 4 5 4 4 4 4
9 9 9 8 8 8 7 7 6 4 3 4 3 2 2 2 2 5 5 4 3 4 5 4 3 4 4 9 8 2 3 3 2 4 4 4 3 3 4 3 3 3
7 9 10 10 9 8 7 7 7 5 5 4 3 1 1 4 8 6 2 3 4 3 5 4 4 5 13 10 6 5 5 4 4 3 3 2 2 3 3 4 4 4
7 8 9 9 9 9 8 8 7 7 7 5 3 2 6 8 5 1 4 3 3 4 3 3 3 6 5 6 6 6 5 1 2 1 1 1 2 1 1 2 3 3
8 9 9 8 9 8 7 7 7 6 6 2 2 5 6 4 3 4 3 3 2 3 4 4 5 6 6 6 6 5 5 4 1 3 0 0 1 0 0 1 1 2
9 10 9 8 8 7 6 7 7 8 7 6 5 0 4 5 5 5 2 2 2 4 5 6 6 5 7 8 7 7 6 3 1 1 1 0 1 1 0 3 5 5
10 10 9 8 7 6 5 8 7 7 8 4 6 6 4 4 4 5 3 1 3 2 5 6 5 9 8 8 7 6 6 4 2 1 1 2 2 3 3 6 4 2
9 9 8 7 6 4 7 9 7 8 10 8 6 4 4 3 2 4 4 5 5 4 6 7 5 7 7 8 7 6 7 3 2 3 2 2 4 3 4 3 3 2
8 8 6 6 10 8 6 6 8 8 9 7 6 4 3 3 4 4 4 5 4 5 6 6 6 7 8 7 6 8 5 3 4 1 5 3 2 2 1 5 7 7
2 4 10 7 9 9 8 9 7 6 7 6 6 6 4 4 2 4 4 5 6 6 6 6 6 7 7 7 7 8 5 2 1 4 2 1 3 3 6 8 11 17
8 7 4 5 7 7 5 4 6 6 5 5 5 6 6 6 4 5 4 4 4 6 11 8 6 5 6 6 5 6 5 3 2 2 1 2 3 3 8 7 7 10
11 6 4 3 7 6 6 7 7 5 7 7 5 5 6 5 7 5 6 4 5 7 7 7 6 5 4 5 9 11 10 4 5 5 5 3 3 2 5 6 6 6
Wind_Direction
199 199 205 205 211 214 203 198 199 207 220 197 196 195 211 187 186 204 194 201 206 205 213 220 187 199 226 238 271 268 293 312 298 262 239 241 246 248 249 260 280 275
201 201 199 205 206 220 223 213 208 211 197 235 208 187 197 208 188 189 184 201 194 211 203 191 197 202 217 227 200 217 231 240 256 257 264 265 246 257 259 258 262 272
205 202 205 207 204 205 217 219 226 219 211 202 217 225 201 208 206 186 194 172 191 208 195 193 199 194 213 231 238 199 206 205 231 258 331 29 341 323 319 292 272 268
207 202 204 209 207 203 208 215 219 222 225 193 210 207 225 213 204 187 201 201 193 192 194 199 197 199 207 213 212 239 240 166 234 263 347 318 319 307 296 301 304 306
211 212 207 211 220 208 204 224 221 213 218 216 207 217 199 216 207 214 206 198 211 231 207 188 188 213 184 220 210 194 251 238 234 206 250 266 280 277 271 271 280 278
222 338 305 229 203 214 207 216 219 229 221 217 216 216 206 200 217 221 214 201 201 218 229 211 194 197 178 197 172 198 228 244 247 226 214 242 261 269 271 268 265 269
12 39 282 289 282 264 212 209 215 222 227 217 236 219 209 199 200 218 243 203 183 214 230 79 37 163 192 150 157 183 209 268 287 306 280 244 240 258 276 287 291 283
185 202 208 225 234 203 220 218 218 221 220 52 291 254 244 229 200 207 216 230 223 171 203 199 190 157 182 158 168 179 224 239 254 244 255 262 281 284 276 262 277 289
204 232 305 238 250 267 23 301 275 181 124 241 218 218 209 230 227 216 216 207 212 185 175 173 153 158 154 159 184 230 243 244 267 295 289 272 264 264 261 288 296 294
196 187 203 247 228 103 146 207 167 113 79 47 355 325 249 204 240 232 69 52 59 63 64 103 119 90 73 325 293 295 299 294 303 339 343 324 298 295 325 312 316 329
189 184 194 229 217 157 194 209 186 149 161 167 167 267 269 98 148 56 90 68 76 88 120 117 137 151 193 240 253 280 348 12 37 10 337 317 321 337 329 325 316 341
188 188 200 213 184 146 172 196 172 112 175 211 164 193 160 141 111 137 124 137 117 61 83 22 28 5 12 12 32 32 37 40 31 13 329 331 314 299 316 297 277 240
184 187 190 205 186 160 175 195 185 152 192 200 194 187 163 129 137 146 145 188 97 43 37 30 26 14 355 331 318 30 40 31 35 11 316 293 323 345 301 258 248 234
180 180 187 189 166 164 177 184 182 189 199 203 168 132 105 114 120 124 99 64 58 67 76 50 317 261 226 257 272 271 183 127 190 249 266 278 266 248 259 261 253 251
175 178 173 166 163 172 177 179 194 197 189 45 32 25 95 112 96 87 67 65 69 94 117 169 248 307 268 207 182 213 164 187 200 216 235 252 265 254 253 264 262 274
171 164 165 161 168 175 181 182 182 175 112 80 57 355 32 68 82 72 53 86 116 147 154 137 165 187 189 270 249 202 196 185 197 210 206 217 229 263 270 279 280 315
161 166 166 168 173 175 181 183 177 154 118 122 121 98 27 36 35 46 308 222 154 132 109 114 175 153 153 187 194 205 190 183 200 193 205 229 292 322 354 306 356 3
173 174 176 176 176 179 179 178 164 159 130 129 156 143 58 40 36 209 202 152 133 121 109 132 129 98 115 104 77 34 1 359 200 178 114 272 247 129 198 354 354 7
185 187 187 182 183 179 178 161 152 111 92 125 109 54 80 102 227 248 230 165 157 146 152 169 123 90 85 76 70 55 24 338 102 53 335 168 96 99 337 346 326 275
186 190 191 189 183 179 166 145 114 93 88 56 55 210 181 172 189 201 234 159 204 189 139 117 93 60 47 50 44 41 27 343 351 89 164 281 81 154 54 68 52 30
191 191 188 186 178 169 143 83 77 96 89 148 202 197 161 181 179 142 160 152 56 36 104 83 65 41 48 45 36 21 357 307 233 187 152 198 191 89 72 75 76 58
194 190 180 174 165 112 78 89 111 140 147 188 181 154 191 191 159 138 155 147 152 114 96 93 70 43 52 43 29 11 344 291 265 228 187 131 76 54 57 108 108 55
192 188 163 93 56 66 99 138 162 157 139 159 158 166 163 153 158 151 112 111 115 108 107 105 85 46 44 41 30 12 351 304 279 83 77 73 354 104 138 61 59 47
349 64 77 112 138 139 172 178 146 111 130 158 154 153 140 80 16 83 80 96 114 138 125 108 86 47 43 36 28 2 311 298 8 76 71 171 194 143 96 81 62 59
53 67 116 125 118 151 168 119 105 122 136 143 143 136 131 142 138 112 95 92 130 126 117 115 105 75 44 32 32 19 11 7 331 97 75 10 32 45 96 100 84 62
102 101 95 171 159 154 148 137 136 146 147 138 117 93 77 83 101 102 116 135 140 114 113 115 107 86 47 39 40 33 18 19 38 16 23 20 66 299 115 119 105 84